Regional Weather Roundup
Issued by NWS

Home | Current Version | Previous Version | Text Only | Print | Product List | Glossary Off
Versions: 1 2 3 4 5 6 7 8 9 10 11 12 13 14 15 16 17 18 19 20 21 22 23 24 25 26 27 28 29 30 31 32 33 34 35 36 37 38 39 40 41 42 43 44 45 46 47 48 49 50

000
ASUS44 KMEG 010700
RWRTN
TENNESSEE HOURLY STATE WEATHER ROUNDUP
NATIONAL WEATHER SERVICE MEMPHIS TN
200 AM CDT WED JUL 01 2015

TNZ002-004-019-021-049-052-054-088>092-010800-
WEST TENNESSEE

CITY           SKY/WX    TMP DP  RH WIND       PRES   REMARKS
MEMPHIS INTL   PTCLDY    77  74  90 SW8       29.96F
NWS MEMPHIS      N/A     75 N/A N/A MISG        N/A
JACKSON        PTCLDY    74  71  91 S7        29.96F
DYERSBURG        N/A    N/A N/A N/A MISG        N/A
PARIS          PTCLDY    72  68  88 SW6       29.95S
LEXINGTON      MOCLDY    72  72 100 CALM      29.96F
$$

TNZ008-025-027-028-033-062-065-066-010800-
NORTH MIDDLE TENNESSEE

CITY           SKY/WX    TMP DP  RH WIND       PRES   REMARKS
NASHVILLE      PTCLDY    76  73  91 SW6       29.96S
CLARKSVILLE    MOCLDY    74  69  85 SW5       29.94S
COOKEVILLE     CLOUDY    72  72 100 SW3       29.98S
CROSSVILLE     CLOUDY    71  68  90 W3        30.03S
$$

TNZ061-075-076-078-094-096-097-010800-
SOUTH MIDDLE TENNESSEE

CITY           SKY/WX    TMP DP  RH WIND       PRES   REMARKS
FAYETTEVILLE   CLEAR     70  68  94 SW5       30.01F
TULLAHOMA      PTCLDY    72  68  88 SW12      30.02F
WINCHESTER     CLEAR     72  70  94 W7        30.01F
COLUMBIA       CLEAR     73  73 100 SW8       29.98S
SHELBYVILLE    CLEAR     73  72  94 S5        30.00F
$$

TNZ017-018-042-046-047-010800-
NORTHEAST TENNESSEE

CITY           SKY/WX    TMP DP  RH WIND       PRES   REMARKS
TRI CITIES     PTCLDY    65  64  97 CALM      29.98F
ELIZABETHTON   MOSUNNY   66  64  94 W6        29.99F
$$

TNZ012-013-036-069-073-074-010800-
CENTRAL EAST TENNESSEE

CITY           SKY/WX    TMP DP  RH WIND       PRES   REMARKS
KNOXVILLE      PTCLDY    68  66  93 S9        29.98S
OAK RIDGE      PTCLDY    68  66  93 CALM      30.00S FOG
GATLINBURG     MOSUNNY   66  66 100 CALM      29.98F
$$

TNZ083-085-099-010800-
SOUTHEAST TENNESSEE

CITY           SKY/WX    TMP DP  RH WIND       PRES   REMARKS
CHATTANOOGA    PTCLDY    75  67  76 SW9       30.00F
$$

SKY/WX REPORTED AS FAIR MEANS FEW OR NO CLOUDS BELOW
12 THOUSAND FEET.




USA.gov is the U.S. government's official web portal to all federal, state and local government web resources and services.